• In Netherlands
  • List of Countries
  • For 7 days
  • Water Temperature
  • Satellite Maps
  • Weather Map
  • Weather Widgets
  • user-avatar
    Login

    Hourly Weather Orsha

    Today, 25 June, Sunday

    Time Temperature Precipitation Wind Pressure Humidity
    00:00 +14°C° 0 mm 2 mps 739 mmHg 98%
    01:00 +13°C° 0 mm 3 mps 739 mmHg 98%
    02:00 +14°C° 0 mm 2 mps 738 mmHg 98%
    03:00 +14°C° 0 mm 2 mps 738 mmHg 98%
    04:00 +13°C° 0 mm 3 mps 739 mmHg 97%
    05:00 +13°C° 0 mm 3 mps 739 mmHg 97%
    06:00 +14°C° 0.2 mm 3 mps 739 mmHg 95%
    07:00 +14°C° 0.2 mm 3 mps 739 mmHg 93%
    08:00 +16°C° 0.2 mm 3 mps 739 mmHg 91%
    09:00 +17°C° 0.3 mm 4 mps 739 mmHg 89%
    10:00 +18°C° 0.3 mm 4 mps 739 mmHg 88%
    11:00 +19°C° 0.3 mm 4 mps 739 mmHg 86%
    12:00 +19°C° 0.2 mm 5 mps 739 mmHg 81%
    13:00 +20°C° 0.2 mm 5 mps 739 mmHg 75%
    14:00 +21°C° 0.2 mm 6 mps 739 mmHg 69%
    15:00 +21°C° 0 mm 5 mps 739 mmHg 66%
    16:00 +21°C° 0 mm 5 mps 739 mmHg 63%
    17:00 +21°C° 0 mm 5 mps 739 mmHg 60%
    18:00 +20°C° 0 mm 4 mps 739 mmHg 68%
    19:00 +18°C° 0 mm 3 mps 739 mmHg 75%
    20:00 +17°C° 0 mm 2 mps 739 mmHg 83%
    21:00 +16°C° 0 mm 2 mps 739 mmHg 85%
    22:00 +15°C° 0 mm 2 mps 739 mmHg 87%
    23:00 +15°C° 0 mm 2 mps 739 mmHg 89%

    Tomorrow, 26 June, Monday

    Time Temperature Precipitation Wind Pressure Humidity
    00:00 +15°C° 0 mm 2 mps 739 mmHg 90%
    01:00 +14°C° 0 mm 3 mps 738 mmHg 91%
    02:00 +14°C° 0 mm 3 mps 738 mmHg 92%
    03:00 +16°C° 0.1 mm 3 mps 738 mmHg 91%
    04:00 +16°C° 0.1 mm 3 mps 738 mmHg 91%
    05:00 +17°C° 0.1 mm 3 mps 738 mmHg 90%
    06:00 +18°C° 0.1 mm 3 mps 738 mmHg 87%
    07:00 +19°C° 0.1 mm 3 mps 738 mmHg 84%
    08:00 +20°C° 0.1 mm 3 mps 738 mmHg 81%
    09:00 +21°C° 0.5 mm 4 mps 738 mmHg 80%
    10:00 +21°C° 0.5 mm 4 mps 737 mmHg 80%
    11:00 +21°C° 0.5 mm 4 mps 737 mmHg 79%
    12:00 +21°C° 0.5 mm 4 mps 737 mmHg 80%
    13:00 +21°C° 0.5 mm 4 mps 737 mmHg 81%
    14:00 +21°C° 0.5 mm 4 mps 737 mmHg 82%
    15:00 +21°C° 0.5 mm 4 mps 737 mmHg 80%
    16:00 +21°C° 0.5 mm 4 mps 737 mmHg 78%
    17:00 +20°C° 0.5 mm 4 mps 737 mmHg 77%
    18:00 +19°C° 0 mm 4 mps 737 mmHg 77%
    19:00 +18°C° 0 mm 4 mps 737 mmHg 77%
    20:00 +16°C° 0 mm 3 mps 738 mmHg 78%
    21:00 +14°C° 0 mm 3 mps 738 mmHg 81%
    22:00 +13°C° 0 mm 3 mps 738 mmHg 84%
    23:00 +11°C° 0 mm 3 mps 738 mmHg 86%

    Day after tomorrow, 27 June, Tuesday

    Time Temperature Precipitation Wind Pressure Humidity
    00:00 +11°C° 0 mm 3 mps 739 mmHg 87%
    01:00 +11°C° 0 mm 3 mps 739 mmHg 88%
    02:00 +11°C° 0 mm 3 mps 739 mmHg 89%
    03:00 +11°C° 0 mm 3 mps 740 mmHg 89%
    04:00 +11°C° 0 mm 3 mps 740 mmHg 88%
    05:00 +11°C° 0 mm 3 mps 740 mmHg 88%
    06:00 +12°C° 0 mm 4 mps 741 mmHg 81%
    07:00 +14°C° 0 mm 4 mps 741 mmHg 74%
    08:00 +17°C° 0 mm 4 mps 741 mmHg 66%
    09:00 +18°C° 0 mm 4 mps 741 mmHg 60%
    10:00 +19°C° 0 mm 5 mps 742 mmHg 54%
    11:00 +21°C° 0 mm 5 mps 742 mmHg 48%
    12:00 +21°C° 0 mm 5 mps 742 mmHg 45%
    13:00 +22°C° 0 mm 5 mps 742 mmHg 43%
    14:00 +23°C° 0 mm 5 mps 742 mmHg 40%
    15:00 +22°C° 0 mm 5 mps 742 mmHg 42%
    16:00 +22°C° 0 mm 5 mps 742 mmHg 44%
    17:00 +22°C° 0 mm 4 mps 741 mmHg 46%
    18:00 +20°C° 0 mm 3 mps 741 mmHg 54%
    19:00 +18°C° 0 mm 3 mps 741 mmHg 63%
    20:00 +17°C° 0 mm 2 mps 741 mmHg 71%
    21:00 +16°C° 0 mm 2 mps 742 mmHg 74%
    22:00 +14°C° 0 mm 2 mps 742 mmHg 78%
    23:00 +13°C° 0 mm 2 mps 742 mmHg 82%

    28 June, Wednesday

    Time Temperature Precipitation Wind Pressure Humidity
    00:00 +13°C° 0 mm 2 mps 742 mmHg 84%
    01:00 +12°C° 0 mm 2 mps 743 mmHg 87%
    02:00 +12°C° 0 mm 2 mps 743 mmHg 90%
    03:00 +12°C° 0 mm 2 mps 743 mmHg 90%
    04:00 +12°C° 0 mm 2 mps 743 mmHg 90%
    05:00 +12°C° 0 mm 1 mps 744 mmHg 90%
    06:00 +14°C° 0 mm 1 mps 744 mmHg 81%
    07:00 +15°C° 0 mm 1 mps 744 mmHg 71%
    08:00 +18°C° 0 mm 1 mps 744 mmHg 62%
    09:00 +20°C° 0 mm 1 mps 745 mmHg 55%
    10:00 +22°C° 0 mm 1 mps 745 mmHg 49%
    11:00 +23°C° 0 mm 1 mps 745 mmHg 43%
    12:00 +24°C° 0 mm 1 mps 745 mmHg 40%
    13:00 +25°C° 0 mm 1 mps 744 mmHg 38%
    14:00 +25°C° 0 mm 1 mps 744 mmHg 36%
    15:00 +25°C° 0 mm 1 mps 744 mmHg 38%
    16:00 +23°C° 0 mm 0 mps 744 mmHg 39%
    17:00 +23°C° 0 mm 0 mps 744 mmHg 40%
    18:00 +23°C° 0 mm 1 mps 744 mmHg 49%
    19:00 +20°C° 0 mm 2 mps 744 mmHg 57%
    20:00 +18°C° 0 mm 2 mps 743 mmHg 65%
    21:00 +17°C° 0 mm 2 mps 744 mmHg 69%
    22:00 +16°C° 0 mm 3 mps 744 mmHg 73%
    23:00 +14°C° 0 mm 3 mps 744 mmHg 76%

    29 June, Thursday

    Time Temperature Precipitation Wind Pressure Humidity
    00:00 +14°C° 0 mm 3 mps 744 mmHg 79%
    01:00 +14°C° 0 mm 3 mps 743 mmHg 82%
    02:00 +13°C° 0 mm 3 mps 743 mmHg 85%
    03:00 +14°C° 0 mm 3 mps 743 mmHg 84%
    04:00 +14°C° 0 mm 3 mps 743 mmHg 84%
    05:00 +16°C° 0 mm 3 mps 743 mmHg 83%
    06:00 +18°C° 0 mm 4 mps 743 mmHg 78%
    07:00 +20°C° 0 mm 4 mps 743 mmHg 74%
    08:00 +22°C° 0 mm 4 mps 742 mmHg 69%
    09:00 +25°C° 0 mm 4 mps 742 mmHg 64%
    10:00 +27°C° 0 mm 5 mps 742 mmHg 59%
    11:00 +29°C° 0 mm 5 mps 742 mmHg 54%
    12:00 +29°C° 0.2 mm 5 mps 742 mmHg 56%
    13:00 +29°C° 0.2 mm 5 mps 741 mmHg 59%
    14:00 +30°C° 0.2 mm 5 mps 741 mmHg 61%
    15:00 +29°C° 0.3 mm 5 mps 741 mmHg 61%
    16:00 +29°C° 0.3 mm 5 mps 740 mmHg 62%
    17:00 +29°C° 0.3 mm 5 mps 740 mmHg 62%
    18:00 +28°C° 0 mm 5 mps 740 mmHg 66%
    19:00 +27°C° 0 mm 5 mps 739 mmHg 69%
    20:00 +26°C° 0 mm 5 mps 739 mmHg 73%
    21:00 +26°C° 0.3 mm 5 mps 739 mmHg 75%
    22:00 +25°C° 0.3 mm 5 mps 738 mmHg 77%
    23:00 +25°C° 0.3 mm 5 mps 738 mmHg 78%

    30 June, Friday

    Time Temperature Precipitation Wind Pressure Humidity
    00:00 +23°C° 1.5 mm 5 mps 738 mmHg 84%
    01:00 +22°C° 1.5 mm 5 mps 738 mmHg 89%
    02:00 +21°C° 1.5 mm 5 mps 739 mmHg 94%
    03:00 +21°C° 0.6 mm 4 mps 738 mmHg 94%
    04:00 +21°C° 0.6 mm 3 mps 738 mmHg 95%
    05:00 +20°C° 0.6 mm 2 mps 737 mmHg 96%
    06:00 +21°C° 0.7 mm 3 mps 737 mmHg 94%
    07:00 +22°C° 0.7 mm 4 mps 737 mmHg 93%
    08:00 +23°C° 0.7 mm 5 mps 737 mmHg 91%
    09:00 +25°C° 0.2 mm 5 mps 737 mmHg 84%
    10:00 +26°C° 0.2 mm 5 mps 737 mmHg 77%
    11:00 +27°C° 0.2 mm 5 mps 737 mmHg 69%
    12:00 +28°C° 0.2 mm 6 mps 737 mmHg 64%
    13:00 +28°C° 0.2 mm 6 mps 737 mmHg 59%
    14:00 +29°C° 0.2 mm 6 mps 737 mmHg 53%
    15:00 +28°C° 0.3 mm 5 mps 737 mmHg 59%
    16:00 +27°C° 0.3 mm 5 mps 737 mmHg 65%
    17:00 +27°C° 0.3 mm 4 mps 737 mmHg 71%
    18:00 +25°C° 0.2 mm 3 mps 737 mmHg 73%
    19:00 +22°C° 0.2 mm 3 mps 737 mmHg 76%
    20:00 +21°C° 0.2 mm 3 mps 737 mmHg 78%
    21:00 +20°C° 0 mm 3 mps 737 mmHg 78%
    22:00 +19°C° 0 mm 3 mps 737 mmHg 79%
    23:00 +18°C° 0 mm 3 mps 737 mmHg 80%
    Show more